Wind_Speed
13 14 14 14 14 14 15 15 15 15 15 16 16 16 16 16 15 16 16 17 17 17 18 18 17 18 18 19 19 20 20 19 18 17 16 15 14 13 12 11 10 9 7
12 13 13 14 14 14 14 14 14 14 14 14 15 16 15 15 15 15 16 16 17 17 17 19 20 19 20 20 21 22 22 22 20 19 18 17 16 15 15 14 12 11 9
12 12 12 13 13 14 14 14 15 15 14 15 15 15 15 15 15 15 15 15 16 17 18 19 20 20 21 21 22 23 23 24 23 22 21 20 19 17 17 16 15 13 12
11 11 12 12 13 13 13 13 14 14 14 14 14 14 14 15 15 15 15 16 16 17 17 18 19 20 21 22 22 24 25 25 25 25 24 23 22 20 19 18 17 16 14
10 11 11 11 11 12 12 12 12 13 13 14 14 14 14 14 15 15 16 17 17 17 18 18 19 20 20 21 22 23 25 27 27 27 27 26 25 24 22 21 20 19 17
10 10 11 11 11 11 12 12 12 12 12 13 13 14 14 14 15 15 16 17 18 18 18 19 19 20 21 21 22 23 25 27 29 30 29 28 28 26 25 24 23 21 20
9 10 10 10 11 11 11 11 11 11 12 12 13 13 13 13 14 14 15 16 17 18 19 20 21 21 22 22 23 24 25 27 28 30 31 31 30 29 28 27 26 24 23
9 9 9 10 10 10 11 11 11 11 12 13 13 13 13 13 13 14 15 16 17 18 19 20 21 22 24 24 24 25 26 27 29 30 31 32 32 32 31 30 29 27 26
8 9 9 10 10 10 11 11 12 12 13 13 14 14 14 14 14 14 15 16 17 18 19 21 22 23 24 25 25 26 28 27 29 30 31 32 33 33 33 33 32 31 29
8 8 9 10 10 10 11 11 12 13 14 15 15 16 16 16 16 16 16 17 18 19 20 21 22 24 25 26 27 28 29 30 30 31 32 33 33 34 35 35 35 34 32
8 8 9 10 10 11 12 13 14 15 16 16 16 17 18 18 19 19 19 19 20 20 21 22 23 25 26 27 29 30 30 31 32 32 33 34 35 35 35 36 37 37 36
8 9 10 11 11 12 13 14 15 17 18 18 18 18 19 19 20 20 21 21 22 22 23 24 25 26 27 28 30 31 32 33 34 34 34 35 36 36 36 37 38 38 38
8 10 10 12 13 14 15 15 17 18 18 19 19 20 20 20 21 21 22 23 24 24 25 26 27 27 28 29 31 32 33 34 35 36 36 36 37 38 38 38 38 39 40
9 11 11 13 14 15 16 17 18 19 20 20 21 21 22 22 22 22 23 24 25 26 27 28 28 29 30 31 32 34 35 35 36 37 38 39 39 39 40 40 40 40 41
11 12 14 15 16 17 18 18 20 21 21 22 22 23 23 24 24 24 24 25 26 27 29 30 30 31 31 33 34 35 36 38 39 39 39 40 41 41 41 42 42 42 42
14 15 16 17 18 19 20 21 22 22 23 23 24 24 25 25 25 25 25 26 27 27 29 31 32 32 33 33 35 37 38 39 40 41 42 42 42 43 43 44 44 44 44
16 17 18 20 21 22 22 23 23 24 25 25 26 27 27 27 27 27 27 27 28 28 29 31 32 33 34 35 36 37 39 40 42 43 44 44 44 45 45 45 46 46 45
18 20 21 22 23 24 24 25 26 26 27 27 28 28 28 28 29 29 29 29 30 30 29 30 33 34 35 35 36 38 39 41 43 44 45 46 46 46 47 47 47 48 47
20 22 23 24 25 26 27 27 28 28 29 29 30 30 30 30 30 31 31 31 31 31 31 31 32 34 35 37 37 38 39 41 43 45 46 47 48 48 48 48 49 49 49
23 24 26 26 27 28 29 30 30 30 31 31 31 31 31 32 32 33 33 33 33 33 33 32 32 33 35 36 37 38 38 40 41 43 45 47 48 49 50 50 50 51 51
26 27 28 28 29 30 31 32 32 32 33 33 33 33 34 34 34 34 34 34 34 34 34 33 33 33 34 36 37 37 38 39 40 41 43 46 48 49 51 52 52 52 52
29 29 30 31 32 32 33 33 33 34 34 34 34 35 35 36 36 35 35 35 35 35 35 35 34 34 34 36 36 37 37 38 39 41 42 44 46 48 50 52 53 53 53
31 32 33 33 34 34 34 34 34 35 35 36 36 36 37 37 37 37 37 37 36 36 35 35 34 34 35 35 36 36 37 37 38 41 42 42 45 46 49 51 53 54 54
33 34 35 36 36 36 36 36 37 37 37 38 38 38 38 39 39 39 38 37 37 37 37 36 35 34 35 35 35 36 36 36 37 39 41 41 43 45 48 50 52 54 55
36 36 37 38 38 38 39 39 39 39 39 40 40 40 40 40 40 40 39 38 38 38 37 36 35 35 35 35 35 35 35 36 36 37 40 40 41 43 45 47 50 52 54
38 39 39 40 40 40 41 41 41 41 41 41 42 42 42 41 41 41 40 39 38 38 37 37 36 35 35 35 36 36 36 36 35 35 38 39 40 42 42 44 47 50 52
Wind_Direction
295 297 298 297 296 297 297 296 295 294 290 285 284 282 279 275 271 267 263 260 258 256 252 252 251 244 237 233 230 225 221 220 219 218 216 213 211 211 210 208 206 205 203
298 299 299 299 299 298 298 298 297 295 292 288 286 283 280 274 270 269 266 262 259 259 257 254 251 246 241 236 233 229 225 222 221 220 219 218 216 215 214 214 212 212 211
301 302 302 302 299 297 297 297 297 296 292 289 286 284 280 273 269 268 268 264 261 259 256 254 250 246 243 239 236 232 229 226 224 223 222 221 221 220 218 218 218 217 217
303 305 307 306 303 300 299 299 299 297 294 291 289 285 282 277 272 268 267 264 261 258 255 254 249 246 244 242 240 235 231 228 227 227 225 223 223 223 222 221 221 221 221
309 310 312 309 305 303 302 302 301 300 298 295 292 288 285 281 275 270 267 265 263 260 258 255 251 248 247 245 242 239 235 232 230 229 227 226 224 224 224 224 224 224 224
314 315 315 312 309 307 306 306 305 304 303 301 297 293 290 285 280 274 269 265 263 264 262 257 254 251 249 247 245 243 241 239 234 231 229 228 226 226 225 226 226 226 226
319 320 319 318 317 315 314 313 312 310 309 307 305 301 296 291 285 278 272 267 264 263 262 258 255 252 250 248 247 245 243 244 240 235 232 230 229 228 227 227 227 227 227
324 323 323 324 323 322 321 320 318 316 314 311 309 306 302 296 290 284 278 273 268 265 262 259 256 253 251 251 250 249 246 245 243 240 235 233 231 230 229 229 228 228 227
327 330 333 333 330 327 325 325 323 321 318 316 313 310 305 299 294 289 283 277 272 268 265 261 258 257 255 253 251 250 247 246 244 242 239 236 235 233 232 230 230 229 229
331 334 337 339 337 335 332 329 327 325 322 317 313 309 305 300 296 292 288 283 278 272 268 265 262 259 256 254 253 251 249 247 245 243 243 239 237 237 237 234 231 231 231
329 332 336 337 335 333 332 329 326 324 321 318 313 309 304 300 296 292 289 284 280 276 273 270 266 262 259 256 255 253 251 249 247 245 244 242 239 239 239 236 233 233 233
328 330 332 334 332 329 327 327 326 324 322 319 315 311 306 302 298 294 291 286 282 278 275 272 269 265 262 259 256 254 252 250 248 247 245 243 241 240 241 239 236 234 234
324 327 329 330 329 327 325 323 324 323 322 320 316 312 308 304 300 297 293 289 285 281 277 274 270 268 264 261 258 255 254 252 249 247 247 245 242 240 240 240 239 237 235
319 323 325 326 326 325 324 323 323 323 320 319 317 314 310 306 302 299 295 291 288 284 280 276 272 269 266 263 260 258 255 253 251 249 246 246 245 242 240 239 239 238 237
313 317 319 320 321 321 321 320 320 320 319 318 317 314 311 307 304 300 296 293 290 287 283 279 275 271 268 264 261 259 256 254 252 250 248 246 245 244 242 240 239 238 237
308 311 312 314 315 317 317 316 316 316 317 318 317 316 313 310 306 303 299 295 293 289 285 282 279 275 271 267 263 259 257 254 253 251 249 247 245 243 242 241 240 239 238
303 305 307 309 311 313 314 314 314 314 315 316 316 315 313 311 308 305 302 298 296 292 287 284 281 279 275 270 266 262 258 255 253 251 250 248 247 245 242 241 240 239 237
301 302 304 306 308 310 310 312 312 312 312 313 314 314 313 311 309 307 304 301 299 295 290 286 283 280 277 274 270 265 261 257 254 252 250 248 247 245 243 241 240 239 238
299 300 302 304 306 306 308 309 310 310 311 311 312 312 312 311 309 308 305 303 301 298 293 289 285 282 279 276 272 269 264 260 256 253 251 249 247 245 244 242 240 239 238
298 299 301 303 305 306 307 307 308 308 309 309 309 310 311 311 310 309 307 304 302 300 296 292 288 284 281 278 274 271 267 263 259 256 252 249 247 245 244 242 240 239 239
296 298 300 302 303 304 305 306 306 307 308 308 308 308 309 309 308 308 306 304 302 301 298 295 291 286 282 279 277 273 269 265 262 259 255 252 249 246 244 242 240 239 238
296 298 299 301 302 303 304 304 305 306 306 307 307 308 308 308 307 307 306 303 301 300 298 296 293 288 283 280 278 276 272 267 264 261 257 254 251 248 245 243 241 239 238
295 297 298 300 301 302 303 303 304 304 305 305 306 307 307 307 307 306 305 303 301 299 297 296 293 289 285 281 279 277 274 270 265 262 259 256 253 249 246 243 241 239 238
294 295 297 298 300 301 302 302 303 303 303 304 305 306 306 306 306 305 304 302 301 300 297 295 293 289 286 283 281 278 275 272 267 264 260 256 254 251 247 244 241 239 238
294 295 297 298 299 299 300 301 302 301 303 303 304 305 306 306 306 304 303 301 300 299 298 296 293 290 286 283 281 279 276 273 269 265 261 257 253 252 249 246 242 240 238
293 295 296 297 297 298 299 299 300 300 301 302 302 304 304 305 304 302 302 301 299 298 297 296 294 291 286 283 281 279 277 273 269 265 261 258 254 252 250 248 245 241 238
Height
5876 5875 5874 5874 5873 5872 5872 5871 5871 5870 5870 5870 5870 5870 5871 5872 5873 5873 5874 5875 5876 5877 5878 5879 5881 5883 5885 5887 5889 5892 5894 5897 5899 5901 5903 5904 5906 5908 5909 5911 5912 5913 5914
5873 5873 5872 5871 5871 5870 5869 5869 5868 5868 5867 5867 5867 5867 5868 5868 5869 5870 5870 5871 5872 5873 5874 5876 5877 5879 5881 5883 5885 5888 5891 5893 5896 5898 5900 5902 5904 5906 5907 5909 5911 5912 5914
5871 5870 5870 5869 5868 5868 5867 5866 5866 5865 5865 5864 5864 5864 5865 5865 5866 5866 5867 5868 5868 5869 5870 5871 5873 5875 5876 5879 5881 5884 5886 5889 5892 5894 5897 5899 5901 5903 5905 5907 5909 5911 5912
5869 5868 5868 5867 5866 5865 5865 5864 5863 5863 5862 5862 5861 5861 5861 5861 5862 5863 5863 5864 5865 5866 5867 5867 5869 5870 5872 5874 5876 5879 5882 5884 5887 5890 5893 5895 5898 5900 5902 5904 5906 5908 5910
5867 5866 5865 5864 5864 5863 5862 5862 5861 5860 5859 5859 5858 5858 5858 5858 5859 5859 5860 5860 5861 5862 5863 5864 5865 5866 5868 5870 5872 5874 5877 5879 5882 5885 5888 5891 5894 5896 5899 5901 5903 5906 5908
5865 5864 5863 5862 5861 5861 5860 5859 5858 5858 5857 5856 5855 5855 5855 5855 5855 5855 5856 5857 5857 5858 5858 5859 5861 5862 5864 5866 5868 5869 5871 5874 5877 5880 5882 5885 5889 5892 5895 5897 5900 5902 5905
5863 5863 5862 5861 5860 5858 5857 5857 5856 5855 5854 5854 5853 5852 5852 5852 5852 5852 5852 5853 5853 5854 5854 5855 5856 5858 5859 5861 5863 5865 5867 5869 5871 5874 5877 5880 5883 5886 5890 5892 5895 5898 5901
5862 5861 5860 5859 5858 5857 5856 5855 5854 5853 5852 5851 5850 5849 5849 5849 5848 5848 5848 5848 5849 5849 5850 5851 5852 5853 5854 5856 5858 5859 5861 5863 5865 5868 5870 5874 5877 5880 5884 5887 5890 5893 5896
5861 5860 5859 5858 5856 5855 5854 5853 5852 5851 5850 5848 5847 5847 5846 5845 5845 5845 5844 5844 5844 5844 5845 5846 5846 5848 5849 5850 5852 5853 5855 5857 5859 5862 5864 5867 5870 5874 5877 5881 5884 5888 5891
5859 5858 5857 5856 5855 5854 5852 5851 5850 5848 5847 5846 5845 5843 5843 5842 5841 5841 5840 5840 5839 5839 5839 5840 5841 5842 5843 5844 5846 5847 5849 5851 5853 5855 5857 5860 5863 5867 5871 5874 5878 5881 5885
5858 5857 5855 5854 5853 5852 5850 5849 5847 5846 5844 5843 5841 5840 5838 5837 5836 5836 5835 5835 5835 5834 5834 5834 5835 5835 5836 5838 5839 5840 5842 5844 5846 5848 5851 5853 5856 5859 5863 5867 5870 5874 5878
5856 5855 5854 5852 5851 5849 5848 5846 5844 5842 5841 5839 5837 5836 5834 5833 5831 5830 5830 5829 5829 5828 5828 5828 5828 5828 5829 5830 5831 5833 5834 5836 5838 5841 5843 5846 5848 5851 5855 5859 5862 5866 5870
5854 5853 5851 5850 5848 5846 5845 5843 5841 5839 5837 5835 5833 5831 5829 5828 5826 5825 5824 5822 5822 5821 5821 5820 5820 5821 5821 5822 5823 5825 5826 5828 5830 5832 5835 5837 5840 5843 5847 5850 5854 5858 5862
5851 5850 5849 5847 5845 5843 5841 5839 5837 5835 5833 5831 5828 5826 5824 5822 5820 5819 5817 5816 5815 5813 5813 5812 5812 5812 5813 5813 5814 5816 5817 5819 5821 5823 5826 5828 5831 5834 5838 5841 5844 5849 5852
5848 5847 5845 5844 5842 5840 5838 5835 5833 5831 5828 5826 5823 5821 5819 5816 5814 5812 5811 5809 5808 5806 5804 5803 5803 5803 5804 5804 5805 5806 5807 5809 5811 5813 5815 5818 5821 5824 5828 5831 5835 5839 5843
5845 5843 5842 5840 5838 5836 5833 5831 5828 5826 5823 5821 5818 5815 5812 5810 5808 5805 5803 5802 5800 5798 5796 5794 5793 5793 5793 5794 5794 5795 5796 5798 5800 5802 5805 5807 5810 5814 5817 5821 5825 5829 5833
5840 5839 5837 5835 5833 5831 5828 5826 5823 5820 5818 5815 5812 5809 5806 5803 5800 5798 5796 5794 5792 5790 5788 5785 5783 5783 5782 5783 5783 5784 5785 5787 5788 5790 5793 5796 5799 5802 5806 5810 5814 5818 5823
5835 5834 5832 5830 5828 5825 5823 5820 5817 5814 5812 5809 5806 5802 5799 5796 5793 5790 5788 5785 5783 5781 5779 5777 5774 5773 5772 5771 5772 5772 5773 5774 5776 5778 5781 5784 5787 5790 5794 5798 5802 5807 5811
5830 5828 5826 5824 5822 5819 5817 5814 5811 5808 5805 5802 5799 5796 5792 5789 5786 5782 5779 5776 5774 5771 5769 5768 5765 5763 5761 5760 5760 5760 5761 5762 5763 5765 5768 5771 5774 5778 5782 5786 5790 5795 5800
5824 5822 5820 5818 5816 5813 5810 5807 5804 5801 5798 5795 5791 5788 5785 5781 5778 5774 5771 5767 5764 5762 5759 5757 5755 5753 5751 5749 5749 5749 5749 5749 5751 5753 5755 5758 5761 5764 5769 5773 5778 5782 5787
5818 5816 5814 5811 5809 5806 5803 5800 5797 5793 5790 5787 5783 5780 5777 5773 5769 5766 5762 5758 5755 5752 5749 5747 5745 5743 5740 5738 5737 5737 5738 5737 5738 5740 5742 5745 5748 5751 5755 5759 5764 5769 5774
5811 5809 5807 5804 5801 5798 5795 5792 5788 5785 5782 5778 5775 5772 5768 5764 5760 5757 5753 5749 5746 5742 5739 5736 5734 5732 5730 5728 5726 5726 5726 5726 5727 5728 5729 5731 5734 5737 5741 5745 5750 5755 5761
5803 5801 5799 5796 5793 5790 5787 5783 5780 5776 5773 5770 5766 5763 5759 5755 5751 5747 5743 5740 5736 5732 5730 5727 5724 5721 5719 5717 5716 5715 5714 5714 5715 5715 5716 5719 5720 5723 5726 5731 5736 5741 5747
5795 5792 5790 5787 5784 5781 5777 5774 5771 5767 5764 5760 5757 5753 5749 5745 5741 5737 5733 5729 5725 5722 5719 5716 5714 5711 5708 5706 5704 5704 5703 5702 5703 5702 5703 5706 5707 5709 5712 5717 5721 5727 5732
5786 5783 5780 5778 5775 5771 5768 5765 5761 5757 5754 5750 5746 5742 5739 5735 5730 5726 5723 5719 5715 5711 5708 5705 5702 5700 5697 5695 5693 5692 5691 5691 5691 5690 5690 5693 5695 5696 5699 5703 5707 5712 5718
5776 5773 5771 5768 5765 5761 5758 5754 5750 5747 5743 5740 5736 5732 5728 5724 5720 5715 5711 5708 5705 5701 5697 5694 5691 5688 5686 5684 5682 5681 5680 5679 5679 5679 5678 5680 5682 5684 5687 5691 5694 5698 5704